Location: Firenze
(43.7670°N, 11.2500°E)
Time: 13:21:16
(UTC+02:00)

ISS - Visible Passes

Search period start: 11 May 2021 00:00
Search period end: 21 May 2021 00:00
Orbit: 417 x 422 km, 51.6° (Epoch: 11 May)

Date Brightness Start Highest point End Pass type
(mag) Time Alt. Az. Time Alt. Az. Time Alt. Az.
11 May -1.3 02:04:21 23° N 02:04:21 23° N 02:06:32 10° NE visible
11 May -1.2 03:38:30 10° NW 03:41:15 22° N 03:43:59 10° ENE visible
11 May -2.9 05:15:14 10° NW 05:18:34 55° NNE 05:21:54 10° ESE visible
12 May -0.9 01:18:16 15° NE 01:18:16 15° NE 01:19:07 10° NE visible
12 May -1.1 02:51:12 11° NW 02:53:37 21° N 02:56:16 10° NE visible
12 May -2.3 04:27:50 10° NW 04:31:03 39° NNE 04:34:16 10° E visible
13 May -1.2 02:05:02 19° NNW 02:05:59 21° N 02:08:38 10° NE visible
13 May -1.8 03:40:28 10° NW 03:43:31 30° NNE 03:46:33 10° E visible
14 May -1.2 01:18:39 22° N 01:18:39 22° N 01:21:05 10° NE visible
14 May -1.4 02:53:03 10° NW 02:55:56 25° NNE 02:58:48 10° ENE visible
14 May -3.7 04:29:42 10° WNW 04:33:06 85° NNE 04:36:29 10° ESE visible
14 May -2.0 21:15:24 10° SSE 21:17:11 14° SE 21:18:58 10° E visible
14 May -3.8 22:50:12 10° WSW 22:53:34 84° NNW 22:55:36 22° NE visible
15 May -1.4 00:27:53 10° WNW 00:30:44 25° NNW 00:33:37 10° NE visible
15 May -1.2 02:05:35 10° NW 02:08:19 22° N 02:11:02 10° ENE visible
15 May -3.1 03:42:18 10° NW 03:45:38 56° NNE 03:48:57 10° ESE visible
15 May -3.8 22:02:51 10° SW 22:06:09 61° SE 22:09:29 10° ENE visible
15 May -1.8 23:40:08 10° W 23:43:09 30° NNW 23:46:11 10° NE visible
16 May -1.1 01:18:02 10° NW 01:20:41 21° N 01:23:20 10° NE visible
16 May -2.4 02:54:55 10° NW 02:58:07 39° NNE 03:01:20 10° E visible
16 May -3.2 04:31:48 10° WNW 04:34:55 35° SW 04:38:02 10° SSE visible
16 May -3.2 21:15:41 10° SSW 21:18:48 36° SE 21:21:55 10° ENE visible
16 May -2.3 22:52:24 10° W 22:55:36 39° NNW 22:58:48 10° NE visible
17 May -1.1 00:30:24 10° NW 00:33:03 21° N 00:35:42 10° NE visible
17 May -1.8 02:07:31 10° NW 02:10:34 30° NNE 02:13:37 10° E visible
17 May -3.8 03:44:14 10° WNW 03:47:34 59° SW 03:50:53 10° SE visible
17 May -3.0 22:04:47 10° WSW 22:08:05 54° NNW 22:11:25 10° NE visible
17 May -1.2 23:42:42 10° WNW 23:45:25 22° N 23:48:09 10° NE visible
18 May -1.5 01:20:07 10° NW 01:22:58 25° NNE 01:22:58 25° NNE visible
18 May -3.7 21:17:16 10° WSW 21:20:37 83° NNW 21:24:00 10° ENE visible
18 May -1.4 22:54:57 10° WNW 22:57:48 25° NNW 23:00:40 10° NE visible
19 May -1.3 00:32:38 10° NW 00:35:22 22° N 00:36:33 19° NE visible
19 May -0.8 02:09:21 10° NW 02:09:29 11° NW 02:09:29 11° NW visible
19 May -1.7 22:07:11 10° W 22:10:12 30° NNW 22:13:14 10° NE visible
19 May -1.1 23:45:05 10° NW 23:47:44 21° N 23:50:24 10° NE visible
20 May -1.3 01:21:58 10° NW 01:23:19 21° NW 01:23:19 21° NW visible
20 May -2.2 21:19:29 10° W 21:22:39 38° NNW 21:25:51 10° NE visible
20 May -1.1 22:57:27 10° NW 23:00:06 21° N 23:02:45 10° NE visible
